XW-2C

Last updated on Thu Nov 21 2024 00:03:02 GMT+0000 (Coordinated Universal Time)

1 40906U 15049H 24325.57675551 .00112041 00000+0 11495-2 0 9995 2 40906 97.4600 348.3482 0007370 92.6486 267.5616 15.64547458508714
UTC large
Height (km)
Speed (km/s)
/
Latitude / Longitude
Inclination (degrees)
Orbital Period (minutes)
Azimuth
Elevation
Range (km)
Doppler Factor

Next 0 passes for location: London (51.5072 / 0.1276)

Sorry there are no passes over London.